Location: Unspecified
(40.7945°N, 111.1337°W)
Time: 07:44:13
(UTC-06:00)

Altair - Pass Details

Date: 27 June 2019
Orbit: 1501 x 1683 km, 47.2° (Epoch: 20 July)

Event Time Altitude Azimuth Distance (km) Brightness Sun altitude
Rises 02:56:39 0° 297° (WNW) 4,843 10.2 -22.6°
Reaches altitude 10° 02:59:57 10° 291° (WNW) 3,877 9.6 -22.4°
Maximum altitude 03:09:02 42° 225° (SW) 2,235 7.9 -21.7°
Enters shadow 03:16:11 17° 165° (SSE) 3,366 8.8 -21.1°
Exits shadow 03:20:29 - 155° (SSE) 4,569 9.6 -20.7°
Sets 03:21:40 0° 153° (SSE) 4,917 9.8 -20.6°
